This demonstration page uses our WeatherBlox Daily Observations layout. Learn more.

Left ArrowRight Arrow

Hourly Observations for August 19, 2022

Temp ( °F °C ) Dew Point ( °F °C ) Humidity (%) Winds ( mph kmh ) Pressure ( in mb ) Visibility ( mi km ) Precip ( " mm )
12:53 am 00:53 Clear 77 25 65 18.3 66 66 SE 5 7 29.91 1013 10 16 0.00 0.00
1:53 am 01:53 Clear 76 24.4 64 17.8 67 67 S 7 11 29.90 1013 10 16 0.00 0.00
2:53 am 02:53 Clear 74 23.3 62 16.7 66 66 E 5 7 29.89 1012 10 16 0.00 0.00
3:53 am 03:53 Clear 73 22.8 63 17.2 71 71 ENE 3 6 29.88 1012 10 16 0.00 0.00
4:53 am 04:53 Clear 72 22.2 63 17.2 73 73 Calm 29.87 1012 10 16 0.00 0.00
5:53 am 05:53 Clear 71 21.7 63 17.2 76 76 E 5 7 29.87 1012 10 16 0.00 0.00
6:53 am 06:53 Clear 70 21.1 64 17.8 81 81 E 3 6 29.88 1012 10 16 0.00 0.00
7:53 am 07:53 Sunny 71 21.7 65 18.3 81 81 ENE 5 7 29.89 1012 10 16 0.00 0.00
8:53 am 08:53 Mostly Sunny 73 22.8 65 18.3 76 76 ESE 7 11 29.89 1012 10 16 0.00 0.00
9:53 am 09:53 Partly Cloudy 78 25.6 66 18.9 67 67 SE 10 17 29.90 1012 10 16 0.00 0.00
10:53 am 10:53 Sunny 79 26.1 65 18.3 62 62 SE 7 11 29.89 1012 10 16 0.00 0.00
11:53 am 11:53 Sunny 81 27.2 65 18.3 58 58 VRB 3 6 29.88 1012 10 16 0.00 0.00
12:53 pm 12:53 Sunny 84 28.9 64 17.8 51 51 VRB 3 6 29.85 1011 10 16 0.00 0.00
1:53 pm 13:53 Sunny 88 31.1 63 17.2 43 43 SE 8 13 29.81 1010 10 16 0.00 0.00
2:53 pm 14:53 Sunny 89 31.7 63 17.2 42 42 E 6 9 29.78 1009 10 16 0.00 0.00
3:53 pm 15:53 Sunny 91 32.8 60 15.6 36 36 VRB 5 7 29.76 1008 10 16 0.00 0.00
4:53 pm 16:53 Mostly Cloudy 92 33.3 57 13.9 31 31 VRB 5 7 29.73 1007 10 16 0.00 0.00
5:53 pm 17:53 Mostly Cloudy 92 33.3 58 14.4 32 32 S 10 17 29.72 1007 10 16 0.00 0.00
6:49 pm 18:49 Partly Cloudy with Nearby Thunderstorms 90 32 61 16 38 38 SE 20 31 29.65 1004 10 16 0.00 0.00
6:53 pm 18:53 Partly Cloudy with Nearby Thunderstorms 89 31.7 62 16.7 41 41 ESE 29 46 29.74 1007 10 16 0.00 0.00
7:20 pm 19:20 Windy with Storms Likely 81 27.2 64 17.8 57 57 ESE 25 41 29.71 1006 10 16 0.01 0.13
7:45 pm 19:45 Cloudy with Nearby Thunderstorms 76 24.4 66 18.9 71 71 E 20 31 29.76 1008 6 10 0.01 0.13
7:53 pm 19:53 Mostly Cloudy with Nearby Thunderstorms 76 24.4 67 19.4 74 74 E 21 33 29.79 1009 6 10 0.01 0.13
8:07 pm 20:07 Cloudy with Light Rain 75 23.9 68 20 79 79 E 16 26 29.77 1008 9 14 0.01 0.13
8:53 pm 20:53 Mostly Cloudy 76 24.4 67 19.4 74 74 E 13 20 29.81 1010 10 16 0.01 0.13
9:31 pm 21:31 Mostly Clear with Thunderstorms 77 25 67 19.4 71 71 E 10 17 29.80 1009 10 16 0.00 0.00
9:46 pm 21:46 Clear with Nearby Thunderstorms 78 25.6 67 19.4 69 69 E 9 15 29.81 1009 10 16 0.00 0.00
9:53 pm 21:53 Clear with Nearby Thunderstorms 78 25.6 67 19.4 69 69 ESE 10 17 29.84 1011 10 16 0.00 0.00
10:00 pm 22:00 Clear 78 25.6 67 19.4 69 69 ESE 14 22 29.81 1009 10 16 0.00 0.00
10:53 pm 22:53 Partly Cloudy with Light Rain 76 24.4 70 21.1 82 82 ESE 5 7 29.85 1011 10 16 0.01 0.25
11:53 pm 23:53 Mostly Clear with Light Rain 76 24.4 70 21.1 82 82 ESE 5 7 29.85 1011 9 14 0.03 0.76

Powered by AerisWeather